Location: Four Corners
(38.2757°N, 122.4608°W)
Time: 05:22:16
(UTC+00:00)

Cosmos 1553 Rocket - Pass Details

Date: 08 December 2019
Orbit: 942 x 1007 km, 82.9° (Epoch: 21 January)

Event Time Altitude Azimuth Distance (km) Brightness Sun altitude
Rises 02:53:40 0° 356° (N) 3,713 7.0 -23.7°
Reaches altitude 10° 02:56:13 10° 359° (N) 2,768 6.3 -24.2°
Maximum altitude 03:02:33 66° 81° (E) 1,089 3.9 -25.4°
Drops below altitude 10° 03:08:54 10° 164° (SSE) 2,774 6.3 -26.7°
Sets 03:11:27 0° 167° (SSE) 3,721 7.0 -27.2°
